Location: 3 Angels Observatory
(30.5437°N, 88.5068°W)
Time: 17:30:12
(UTC-05:00)

Daily predictions for brighter satellites

Satellite Brightness Start Highest point End
(mag) Time Altitude Azimuth Time Altitude Azimuth Time Altitude Azimuth
Cosmos 1666 Rocket 4.2 19:44:34 10° NNE 19:48:41 36° E 19:52:46 10° SSE
SPOT 3 Rocket 3.6 19:43:58 10° SSE 19:49:08 88° ENE 19:54:19 10° NNW
Thor Agena Rocket 4.2 19:46:04 10° NNE 19:50:54 36° E 19:55:42 10° SSE
Sich 1 3.4 19:47:08 10° N 19:51:12 42° E 19:55:15 10° SSE
Cosmos 1455 2.7 19:48:17 10° SSE 19:51:49 38° E 19:55:25 10° NNE
SJ-6B 3.6 19:49:34 10° SE 19:53:11 33° ENE 19:56:44 10° N
Cosmos 1809 Rocket 4.5 19:48:23 10° S 19:54:32 81° E 20:00:43 10° N
Cosmos 1844 Rocket 2.7 19:49:05 10° NNW 19:54:45 70° ENE 20:00:21 10° SSE
Cosmos 2341 Rocket 4.3 19:52:39 10° SSE 19:58:43 49° E 20:04:46 10° NNE
Aureole 2 3.9 19:55:54 10° S 19:58:58 76° ESE 20:01:54 10° NNE
Cosmos 2333 Rocket 2.6 19:54:29 10° SSW 20:00:07 71° WNW 20:05:47 10° NNE
SL-24 R/B - RUBIN 2 3.5 19:57:28 10° NNW 20:01:49 87° ENE 20:06:18 10° SSE
Cosmos 2219 Rocket 3.1 19:56:51 10° SW 20:02:23 56° WNW 20:07:57 10° N
ATLAS CENTAUR R/B 3.6 20:03:05 10° WSW 20:06:11 27° WNW 20:09:24 10° N
Meteor 2-14 Rocket 4.4 20:00:20 10° S 20:06:22 74° E 20:12:29 10° N
Cosmos 1892 2.8 20:04:32 10° N 20:08:21 56° E 20:12:07 10° SSE
CZ-2D R/B 3.4 20:05:15 10° SSE 20:08:55 51° ENE 20:12:38 10° N
Cosmos 2237 Rocket 2.1 20:03:22 10° SSW 20:08:57 75° ESE 20:14:34 10° NNE
Cosmos 1844 3.7 20:05:40 10° NNW 20:11:23 75° ENE 20:17:09 10° SSE
Cosmos 1939 Rocket 4.0 20:08:35 12° ESE 20:11:23 24° ENE 20:14:32 10° NNE
SL-8 Rocket 4.4 20:07:29 10° SSE 20:13:17 40° E 20:19:05 10° NNE
Genesis I 3.8 20:12:26 10° NNW 20:16:18 41° ENE 20:19:12 16° SE
USA 186 2.4 20:16:31 19° E 20:16:51 20° ENE 20:18:36 10° NNE
Timation 1 Rocket 4.4 20:10:57 10° NNW 20:16:57 89° ENE 20:22:56 10° SSE
Meteor 1-27 4.2 20:11:18 10° S 20:17:02 82° E 20:22:43 10° N
Cosmos 1633 Rocket 3.0 20:13:40 10° N 20:17:59 68° E 20:22:20 10° SSE
Meteor 2-16 Rocket 4.4 20:12:08 10° S 20:18:14 76° E 20:24:21 10° N
Meteor 2-15 Rocket 4.4 20:13:15 10° N 20:19:24 78° E 20:25:29 10° S
OAO 2 Rocket 3.5 20:20:00 10° WNW 20:25:14 71° SSW 20:28:55 19° ESE
Cosmos 2278 Rocket 2.8 20:19:58 10° N 20:25:15 38° ENE 20:29:00 18° SE
Cosmos 1515 Rocket 3.6 20:21:31 10° S 20:25:54 63° E 20:30:18 10° NNE
Cosmos 1371 Rocket 4.0 20:27:30 10° S 20:32:45 71° ESE 20:38:04 10° NNE
ASTRO E2 2.6 20:30:29 10° W 20:34:30 88° N 20:37:01 22° E
Envisat 3.2 20:31:54 10° S 20:36:58 75° WSW 20:42:03 10° NNW
Hubble Space Telescope 2.1 20:35:36 10° SSW 20:38:47 21° SSE 20:39:00 21° SSE
Cosmos 1825 2.9 20:35:33 10° NNE 20:38:59 33° E 20:39:48 30° ESE
Cosmos 1328 Rocket 4.4 20:36:45 10° SSW 20:41:01 52° W 20:45:22 10° N
Nadezhda 3 Rocket 4.5 20:36:44 10° NNW 20:43:00 65° W 20:49:17 10° S
H-2A R/B 4.0 20:43:19 11° ENE 20:43:19 11° ENE 20:44:43 10° NE
CZ-4C R/B 3.2 20:44:58 22° E 20:44:58 22° E 20:47:56 10° NE
OAO 3 Rocket 3.7 20:41:02 10° SW 20:45:24 37° SSE 20:46:40 31° ESE
Cosmos 2228 Rocket 3.3 20:42:10 10° SSW 20:46:31 71° W 20:50:54 10° N
Meteor 2-10 Rocket 3.8 20:45:04 10° S 20:50:36 55° E 20:56:15 10° NNE
Cosmos 2056 Rocket 3.5 20:48:25 10° SSW 20:53:49 88° ESE 20:59:16 10° NNE
Cosmos 1452 Rocket 4.3 20:55:08 29° E 20:55:08 29° E 20:59:08 10° NE
Sakura Rocket 3.1 20:52:28 10° W 20:57:41 65° S 20:58:50 45° SE
Cosmos 1408 2.5 20:57:40 10° N 21:01:22 87° E 21:02:18 49° S
SL-16 R/B 2.1 20:55:48 10° SSW 21:01:26 82° ESE 21:07:07 10° NNE
Cosmos 1470 Rocket 3.9 20:59:49 10° NNW 21:04:13 67° W 21:07:10 20° S
Gblst 52 Del rocket 4.0 21:04:28 10° SW 21:10:15 82° SE 21:15:45 10° NE
ERS-2 4.0 21:10:25 13° SSW 21:13:07 28° W 21:16:20 10° NW
YAOGAN 6 3.9 21:11:29 21° SSW 21:13:20 37° W 21:16:44 10° NNW
Cosmos 2098 Rocket 3.1 21:09:00 10° S 21:13:57 75° W 21:17:50 10° N
ATLAS 2AS CENTAUR R/B 3.1 21:06:38 10° NW 21:14:13 64° WSW 21:18:33 25° S
Resurs 01 Rocket 2.0 21:12:36 28° S 21:14:48 60° W 21:19:11 10° NNW
Cosmos 2344 3.4 21:08:38 10° SSW 21:16:23 69° ESE 21:24:09 10° NE
SJ-11-01 4.4 21:15:33 35° S 21:17:29 70° W 21:22:09 10° NNW
Cosmos 1190 Rocket 4.2 21:12:27 10° N 21:17:34 50° ENE 21:17:56 49° E
Spot 2 Rocket 3.5 21:17:24 37° S 21:19:26 80° WSW 21:24:33 10° NNW
Cosmos 405 4.5 21:17:53 10° N 21:19:45 28° NNE 21:19:45 28° NNE
MetOp-A 4.5 21:29:28 47° ENE 21:29:28 47° ENE 21:34:22 10° N
Cosmos 1727 Rocket 3.8 21:26:03 10° N 21:32:14 78° E 21:33:38 56° SSE
Cosmos 1441 Rocket 4.4 21:37:10 39° NNW 21:37:10 39° NNW 21:39:42 10° N
Cosmos 2297 3.7 21:35:45 10° NNW 21:41:21 68° ENE 21:41:21 68° ENE
Cosmos 2369 Rocket 4.5 21:39:49 10° NE 21:40:37 11° NE 21:40:37 11° NE
NOSS 3-4 (A) 3.9 21:37:49 10° NNW 21:45:02 67° ENE 21:46:16 58° ESE
NOSS 3-4 (C) 3.9 21:37:56 10° NNW 21:45:08 66° ENE 21:46:21 58° ESE
ERS-1 Rocket 3.9 21:49:53 37° NNE 21:49:53 37° NNE 21:53:13 10° N
Cosmos 1420 Rocket 4.3 21:55:12 63° N 21:55:12 63° N 21:59:41 10° NNE
ATLAS 5 CENTAUR R/B 4.4 21:55:51 10° NNE 21:58:49 15° NE 21:58:49 15° NE
Cosmos 407 Rocket 4.1 22:00:03 10° NNW 22:04:28 50° WNW 22:04:28 50° WNW
Cosmos 2278 Rocket 4.1 22:04:47 10° NW 22:08:59 22° W 22:10:53 18° SW
Lacrosse 5 4.3 22:13:19 10° N 22:14:47 13° NNE 22:14:47 13° NNE
ATLAS 2A CENTAUR R/B 3.5 22:02:25 10° WSW 22:21:30 72° S 22:22:31 69° SE
H-2A R/B 3.2 22:23:57 38° NW 22:23:57 38° NW 22:27:04 10° NNW
CZ-4C R/B 3.7 22:29:40 23° W 22:31:50 31° NW 22:36:47 10° N
ARGOS 4.5 22:33:06 35° WNW 22:33:06 35° WNW 22:37:00 10° NNW
Cosmos 1943 Rocket 4.3 22:38:23 10° N 22:40:03 18° NNE 22:40:03 18° NNE
Cosmos 2369 Rocket 4.4 23:20:37 10° NNW 23:22:25 21° NNW 23:22:25 21° NNW
ATLAS 5 CENTAUR R/B 4.4 23:38:14 10° NNW 23:40:22 23° NNW 23:40:22 23° NNW
